Tracking 19254 objects as of 19-Oct-2018
HD Live streaming from Space Station
objects crossing your sky now

IRIDIUM 138

Track IRIDIUM 138 now!
10-day predictions
IRIDIUM 138 is classified as:


NORAD ID: 43071
Int'l Code: 2017-083B
Perigee: 783.2 km
Apogee: 786.4 km
Inclination: 86.4 °
Period: 100.4 minutes
Semi major axis: 7155 km
RCS: Unknown
Launch date: December 23, 2017
Source: United States (US)
Launch site: AIR FORCE WESTERN TEST RANGE (AFWTR)
aabbcc
Your satellite tracking list
Your tracking list is empty




NASA's NSSDC Master Catalog

Two Line Element Set (TLE):
1 43071U 17083B   18291.69187747 +.00000090 +00000-0 +25192-4 0  9996
2 43071 086.3979 051.4723 0002185 101.0390 259.1052 14.34216511043022
Source of the keplerian elements: AFSPC